Home > Weather > Cascais > Past weeks

Flag for Portugal Past Weather in Cascais, Portugal — Yesterday and Last 2 Weeks

Now
57 °F

Clear.


Feels Like: 57 °F
Forecast: 60 / 67 °F
Wind: No wind

Location: Lisbon Portela Airport

Current Time: May 26, 2016 at 4:03:21 AM

Latest Report: May 26, 2016 at 3:30 AM


Visibility: 10 mi

Pressure: 29.86 "Hg

Humidity: 88%

Dew Point: 54 °F

Location of CascaisLocation

Past Weather in Cascais — Graph

°F

Cascais Temperature Yesterday

Maximum temperature yesterday: 70 °F (at 3:30 PM)
Minimum temperature yesterday: 57 °F (at 12:00 AM)
Average temperature yesterday: 62 °F

High & Low Weather Summary for the Past Weeks

 TemperatureHumidityPressure
High88 °F (May 20, 4:30 PM)100% (May 11, 7:00 AM)30.21 "Hg (May 11, 7:00 AM)
Low50 °F (May 23, 6:00 AM)22% (May 20, 5:00 PM)29.56 "Hg (May 11, 1:00 PM)
Average61 °F77%30.03 "Hg
* Reported May 11 3:00 AM — May 26 3:00 AM, Cascais, Weather by CustomWeather, © 2016

Note: Actual official high and low records may vary slightly from our data, if they occured in-between our weather recording intervals... More about our weather records

Advertising

Cascais Weather History for the Previous 24 Hours

Scroll right to see more
 ConditionsComfort  
Time TempWeatherWind HumidityBarometerVisibility
3:00 AM
Thu, May 26
57 °FClear.3 mph94%29.89 "Hg10 mi
2:30 AM57 °FPassing clouds.5 mph94%29.89 "HgN/A
2:00 AM57 °FPassing clouds.5 mph94%29.89 "HgN/A
1:30 AM59 °FPassing clouds.6 mph88%29.89 "HgN/A
1:00 AM59 °FPassing clouds.7 mph88%29.89 "HgN/A
12:30 AM59 °FPassing clouds.7 mph88%29.92 "HgN/A
12:00 AM59 °FPassing clouds.9 mph88%29.92 "HgN/A
11:30 PM
Wed, May 25
59 °FPassing clouds.7 mph88%29.92 "HgN/A
11:00 PM59 °FClear.6 mph88%29.92 "Hg10 mi
10:30 PM59 °FClear.9 mph82%29.92 "Hg10 mi
10:00 PM61 °FClear.10 mph72%29.89 "Hg10 mi
9:30 PM61 °FPassing clouds.9 mph68%29.89 "HgN/A
9:00 PM63 °FPassing clouds.7 mph68%29.89 "HgN/A
8:30 PM63 °FPassing clouds.8 mph64%29.89 "HgN/A
8:00 PM64 °FPassing clouds.9 mph64%29.89 "HgN/A
7:30 PM64 °FPassing clouds.9 mph64%29.89 "HgN/A
7:00 PM64 °FPassing clouds.10 mph64%29.89 "HgN/A
6:30 PM66 °FPassing clouds.9 mph60%29.89 "HgN/A
6:00 PM66 °FPassing clouds.9 mph56%29.89 "HgN/A
5:30 PM66 °FPassing clouds.12 mph56%29.89 "HgN/A
5:00 PM68 °FPassing clouds.12 mph46%29.89 "HgN/A
4:30 PM68 °FPassing clouds.12 mph49%29.89 "HgN/A
4:00 PM70 °FPassing clouds.12 mph40%29.89 "HgN/A
3:30 PM70 °FPassing clouds.13 mph46%29.92 "HgN/A
3:00 PM68 °FPassing clouds.12 mph43%29.92 "HgN/A
2:30 PM66 °FScattered clouds.13 mph60%29.92 "HgN/A
2:00 PM68 °FScattered clouds.12 mph56%29.92 "HgN/A
1:30 PM66 °FScattered clouds.14 mph64%29.92 "HgN/A
1:00 PM68 °FScattered clouds.12 mph56%29.92 "HgN/A
12:30 PM68 °FPassing clouds.12 mph56%29.92 "HgN/A
12:00 PM66 °FScattered clouds.10 mph60%29.92 "HgN/A
11:30 AM66 °FPartly sunny.10 mph64%29.92 "HgN/A
11:00 AM64 °FScattered clouds.7 mph68%29.92 "HgN/A
10:30 AM64 °FScattered clouds.7 mph68%29.92 "HgN/A
10:00 AM64 °FScattered clouds.9 mph64%29.92 "HgN/A
9:30 AM64 °FScattered clouds.8 mph68%29.92 "HgN/A
9:00 AM61 °FScattered clouds.8 mph77%29.89 "HgN/A
8:30 AM61 °FPassing clouds.8 mph83%29.89 "HgN/A
8:00 AM59 °FPassing clouds.7 mph94%29.89 "HgN/A
7:30 AM59 °FPassing clouds.7 mph88%29.89 "HgN/A
7:00 AM59 °FPassing clouds.3 mph88%29.89 "HgN/A
6:30 AM59 °FPassing clouds.3 mph88%29.89 "HgN/A
6:00 AM57 °FPassing clouds.6 mph94%29.89 "HgN/A
5:30 AM57 °FPassing clouds.7 mph94%29.89 "HgN/A
5:00 AM57 °FPassing clouds.6 mph94%29.89 "HgN/A
4:30 AM57 °FPassing clouds.6 mph94%29.89 "HgN/A
4:00 AM57 °FPassing clouds.7 mph94%29.89 "HgN/A
Weather by CustomWeather, © 2016

See weather overviewHow to use our weather pages